User: anonymous   Login
Location: Unspecified
(0.0000°N, 0.0000°E)
Time: 12:55:01
(UTC+00:00)
Language:

Cosmos 1574 - Orbit

View from above orbital plane
View from above orbital plane
View from above satellite
View from above satellite

Ground track
Ground track

The orbit data is extracted from the following two-line orbital elements,

1 15055U 84062A   25133.81519962  .00000076  00000-0  64205-4 0  9995
2 15055  82.9598  13.2057 0028690  85.0926 344.3980 13.74515604 50699
Epoch (UTC): 13 May 2025 19:33:53
Eccentricity: 0.0028690
inclination: 82.9598°
perigee height: 962 km
apogee height: 1004 km
right ascension of ascending node: 13.2057°
argument of perigee: 85.0926°
revolutions per day: 13.74515604
mean anomaly at epoch: 344.3980°
orbit number at epoch: 5069

The dashed part of the orbit path shows where the satellite is in the earth's shadow,  

DLR